User: anonymous
Location: Caltech
(34.1382°N, 118.1253°W)
Time: 22:54:25
(UTC-07:00)
Language:

Meteor 1-11 Rocket - Orbit

View from above orbital plane
View from above orbital plane
View from above satellite
View from above satellite

Ground track
Ground track

The orbit data is extracted from the following two-line orbital elements,

1 05918U 72022B   14233.49379035  .00000160  00000-0  89291-4 0  2385
2 05918 081.2338 242.8773 0058279 343.7045 126.2652 14.05712024173180
Epoch (UTC): 21 August 2014 11:51:03
Eccentricity: 0.0058279
inclination: 81.2338°
perigee height: 832 km
apogee height: 916 km
right ascension of ascending node: 242.8773°
argument of perigee: 343.7045°
revolutions per day: 14.05712024
mean anomaly at epoch: 126.2652°
orbit number at epoch: 17318

The dashed part of the orbit path shows where the satellite is in the earth's shadow,  

DLR